Météo par heure à Julianow

Ce jour, 20 Juin, Dimanche

Heure Température Précipitation Vent Pression Humidité
00:00 +20°C° 0 mm 3 m/s 753 mmHg 83%
01:00 +20°C° 0 mm 2 m/s 753 mmHg 86%
02:00 +19°C° 0 mm 2 m/s 753 mmHg 88%
03:00 +19°C° 0 mm 2 m/s 752 mmHg 90%
04:00 +18°C° 0 mm 3 m/s 752 mmHg 92%
05:00 +20°C° 0 mm 3 m/s 752 mmHg 85%
06:00 +22°C° 0 mm 3 m/s 752 mmHg 77%
07:00 +23°C° 0 mm 4 m/s 752 mmHg 69%
08:00 +26°C° 0 mm 4 m/s 752 mmHg 63%
09:00 +27°C° 0 mm 4 m/s 752 mmHg 57%
10:00 +28°C° 0 mm 4 m/s 752 mmHg 51%
11:00 +29°C° 0 mm 4 m/s 752 mmHg 49%
12:00 +30°C° 0 mm 4 m/s 752 mmHg 47%
13:00 +32°C° 0 mm 4 m/s 751 mmHg 45%
14:00 +32°C° 0 mm 4 m/s 751 mmHg 46%
15:00 +32°C° 0 mm 4 m/s 751 mmHg 48%
16:00 +32°C° 0 mm 4 m/s 750 mmHg 49%
17:00 +29°C° 0 mm 4 m/s 750 mmHg 57%
18:00 +28°C° 0 mm 4 m/s 750 mmHg 65%
19:00 +26°C° 0 mm 4 m/s 750 mmHg 73%
20:00 +25°C° 0 mm 4 m/s 750 mmHg 78%
21:00 +24°C° 0 mm 3 m/s 750 mmHg 82%
22:00 +22°C° 0 mm 3 m/s 750 mmHg 87%
23:00 +21°C° 0 mm 3 m/s 750 mmHg 88%

Demain, 21 Juin, Lundi

Heure Température Précipitation Vent Pression Humidité
00:00 +21°C° 0 mm 3 m/s 750 mmHg 88%
01:00 +20°C° 0 mm 2 m/s 749 mmHg 89%
02:00 +20°C° 0 mm 3 m/s 749 mmHg 89%
03:00 +20°C° 0 mm 3 m/s 749 mmHg 90%
04:00 +19°C° 0 mm 3 m/s 749 mmHg 90%
05:00 +21°C° 0 mm 4 m/s 749 mmHg 84%
06:00 +22°C° 0 mm 4 m/s 749 mmHg 79%
07:00 +25°C° 0 mm 5 m/s 749 mmHg 73%
08:00 +26°C° 0 mm 5 m/s 749 mmHg 67%
09:00 +27°C° 0 mm 5 m/s 749 mmHg 62%
10:00 +29°C° 0 mm 5 m/s 748 mmHg 56%
11:00 +29°C° 0 mm 5 m/s 748 mmHg 54%
12:00 +29°C° 0 mm 5 m/s 748 mmHg 53%
13:00 +30°C° 0 mm 5 m/s 748 mmHg 51%
14:00 +29°C° 0 mm 5 m/s 748 mmHg 54%
15:00 +29°C° 0 mm 4 m/s 747 mmHg 56%
16:00 +29°C° 0 mm 4 m/s 747 mmHg 59%
17:00 +28°C° 0.1 mm 4 m/s 747 mmHg 63%
18:00 +27°C° 0.1 mm 4 m/s 747 mmHg 68%
19:00 +26°C° 0.1 mm 4 m/s 747 mmHg 73%
20:00 +25°C° 0.2 mm 3 m/s 747 mmHg 78%
21:00 +24°C° 0.2 mm 3 m/s 747 mmHg 84%
22:00 +22°C° 0.2 mm 3 m/s 747 mmHg 90%
23:00 +21°C° 0.6 mm 3 m/s 747 mmHg 91%

Après-demain, 22 Juin, Mardi

Heure Température Précipitation Vent Pression Humidité
00:00 +21°C° 0.6 mm 2 m/s 747 mmHg 92%
01:00 +20°C° 0.6 mm 2 m/s 747 mmHg 94%
02:00 +20°C° 0.4 mm 2 m/s 747 mmHg 94%
03:00 +20°C° 0.4 mm 2 m/s 747 mmHg 94%
04:00 +21°C° 0.4 mm 1 m/s 747 mmHg 95%
05:00 +21°C° 0.2 mm 2 m/s 748 mmHg 90%
06:00 +23°C° 0.2 mm 2 m/s 748 mmHg 86%
07:00 +25°C° 0.2 mm 2 m/s 748 mmHg 82%
08:00 +25°C° 0.3 mm 2 m/s 748 mmHg 78%
09:00 +26°C° 0.3 mm 2 m/s 749 mmHg 74%
10:00 +27°C° 0.3 mm 2 m/s 749 mmHg 70%
11:00 +28°C° 0.7 mm 2 m/s 749 mmHg 68%
12:00 +29°C° 0.7 mm 2 m/s 749 mmHg 65%
13:00 +29°C° 0.7 mm 2 m/s 749 mmHg 62%
14:00 +29°C° 0.8 mm 2 m/s 749 mmHg 63%
15:00 +29°C° 0.8 mm 2 m/s 749 mmHg 64%
16:00 +29°C° 0.8 mm 2 m/s 749 mmHg 65%
17:00 +28°C° 0.3 mm 2 m/s 749 mmHg 70%
18:00 +27°C° 0.3 mm 2 m/s 750 mmHg 76%
19:00 +26°C° 0.3 mm 1 m/s 750 mmHg 81%
20:00 +25°C° 0 mm 1 m/s 750 mmHg 84%
21:00 +24°C° 0 mm 1 m/s 750 mmHg 87%
22:00 +23°C° 0 mm 1 m/s 750 mmHg 89%
23:00 +22°C° 0 mm 1 m/s 750 mmHg 91%

23 Juin, Mercredi

Heure Température Précipitation Vent Pression Humidité
00:00 +21°C° 0 mm 2 m/s 750 mmHg 93%
01:00 +21°C° 0 mm 2 m/s 750 mmHg 94%
02:00 +20°C° 0 mm 2 m/s 750 mmHg 95%
03:00 +20°C° 0 mm 2 m/s 750 mmHg 95%
04:00 +20°C° 0 mm 2 m/s 750 mmHg 96%
05:00 +21°C° 0 mm 2 m/s 750 mmHg 90%
06:00 +24°C° 0 mm 2 m/s 751 mmHg 85%
07:00 +25°C° 0 mm 2 m/s 751 mmHg 79%
08:00 +27°C° 0 mm 2 m/s 751 mmHg 72%
09:00 +29°C° 0 mm 2 m/s 751 mmHg 66%
10:00 +31°C° 0 mm 2 m/s 751 mmHg 59%
11:00 +31°C° 0.2 mm 2 m/s 751 mmHg 57%
12:00 +32°C° 0.2 mm 2 m/s 751 mmHg 54%
13:00 +34°C° 0.2 mm 2 m/s 751 mmHg 52%
14:00 +32°C° 0.3 mm 2 m/s 750 mmHg 55%
15:00 +31°C° 0.3 mm 2 m/s 750 mmHg 58%
16:00 +31°C° 0.3 mm 2 m/s 750 mmHg 61%
17:00 +28°C° 6.2 mm 3 m/s 750 mmHg 69%
18:00 +25°C° 6.2 mm 4 m/s 751 mmHg 77%
19:00 +21°C° 6.2 mm 5 m/s 752 mmHg 85%
20:00 +21°C° 0.1 mm 4 m/s 752 mmHg 87%
21:00 +21°C° 0.1 mm 4 m/s 753 mmHg 89%
22:00 +20°C° 0.1 mm 3 m/s 753 mmHg 91%
23:00 +20°C° 0 mm 3 m/s 753 mmHg 92%

24 Juin, Jeudi

Heure Température Précipitation Vent Pression Humidité
00:00 +19°C° 0 mm 3 m/s 753 mmHg 92%
01:00 +18°C° 0 mm 3 m/s 753 mmHg 93%
02:00 +18°C° 0 mm 3 m/s 753 mmHg 92%
03:00 +17°C° 0 mm 3 m/s 754 mmHg 92%
04:00 +16°C° 0 mm 3 m/s 754 mmHg 92%
05:00 +17°C° 0 mm 3 m/s 754 mmHg 87%
06:00 +18°C° 0 mm 2 m/s 754 mmHg 82%
07:00 +19°C° 0 mm 2 m/s 754 mmHg 77%
08:00 +21°C° 0 mm 3 m/s 754 mmHg 72%
09:00 +22°C° 0 mm 3 m/s 754 mmHg 67%
10:00 +25°C° 0 mm 3 m/s 755 mmHg 62%
11:00 +26°C° 0 mm 2 m/s 754 mmHg 58%
12:00 +27°C° 0 mm 2 m/s 754 mmHg 54%
13:00 +28°C° 0 mm 1 m/s 754 mmHg 51%
14:00 +28°C° 0 mm 1 m/s 754 mmHg 50%
15:00 +29°C° 0 mm 1 m/s 753 mmHg 49%
16:00 +27°C° 0 mm 0 m/s 753 mmHg 48%
17:00 +28°C° 0 mm 1 m/s 753 mmHg 54%
18:00 +27°C° 0 mm 1 m/s 752 mmHg 60%
19:00 +26°C° 0 mm 1 m/s 752 mmHg 67%
20:00 +25°C° 0 mm 2 m/s 752 mmHg 70%
21:00 +24°C° 0 mm 2 m/s 752 mmHg 73%
22:00 +22°C° 0 mm 3 m/s 752 mmHg 76%
23:00 +21°C° 2.9 mm 3 m/s 751 mmHg 82%

25 Juin, Vendredi

Heure Température Précipitation Vent Pression Humidité
00:00 +20°C° 2.9 mm 4 m/s 751 mmHg 88%
01:00 +20°C° 2.9 mm 4 m/s 750 mmHg 94%
02:00 +20°C° 10.1 mm 5 m/s 750 mmHg 93%
03:00 +19°C° 10.1 mm 5 m/s 750 mmHg 92%
04:00 +19°C° 10.1 mm 6 m/s 749 mmHg 91%
05:00 +20°C° 0 mm 5 m/s 750 mmHg 89%
06:00 +21°C° 0 mm 4 m/s 750 mmHg 86%
07:00 +21°C° 0 mm 3 m/s 751 mmHg 84%
08:00 +22°C° 0.1 mm 3 m/s 751 mmHg 80%
09:00 +25°C° 0.1 mm 4 m/s 751 mmHg 77%
10:00 +26°C° 0.1 mm 4 m/s 751 mmHg 74%
11:00 +25°C° 0.1 mm 5 m/s 751 mmHg 75%
12:00 +23°C° 0.1 mm 5 m/s 751 mmHg 77%
13:00 +23°C° 0.1 mm 6 m/s 752 mmHg 79%
14:00 +21°C° 0 mm 6 m/s 752 mmHg 81%
15:00 +20°C° 0 mm 6 m/s 752 mmHg 82%
16:00 +18°C° 0 mm 7 m/s 753 mmHg 84%
17:00 +17°C° 0 mm 6 m/s 753 mmHg 84%
18:00 +17°C° 0 mm 5 m/s 753 mmHg 83%
19:00 +16°C° 0 mm 5 m/s 753 mmHg 82%
20:00 +15°C° 0 mm 4 m/s 754 mmHg 85%
21:00 +16°C° 0 mm 3 m/s 754 mmHg 87%
22:00 +14°C° 0 mm 3 m/s 754 mmHg 89%
23:00 +15°C° 0 mm 2 m/s 755 mmHg 90%
Voir plus

Nous avons besoin de votre consentement

Meteoprog et ses fournisseurs de services peuvent stocker et accéder à des données personnelles telles que des cookies, des identifiants d'appareils ou d'autres technologies similaires sur votre appareil et traiter ces données pour personnaliser le contenu et les publicités, ainsi que pour fournir des fonctionnalités de médias sociaux et analyser le trafic.

  • Stocker et/ou accéder à des informations sur votre appareil

    Des cookies, des identifiants d'appareils ou d'autres informations peuvent être stockés ou accessibles sur votre appareil aux fins indiquées ci-dessus.

  • Annonces et contenus personnalisés, mesure des annonces et des contenus, connaissance de l'audience et développement de produits

    Les annonces et le contenu peuvent être personnalisés en fonction d'un profil. D'autres données peuvent être ajoutées pour mieux personnaliser les annonces et le contenu. Les performances des publicités et du contenu peuvent être mesurées. Il est possible d'obtenir des informations sur le public qui a vu les publicités et le contenu. Ces données peuvent être utilisées pour développer ou améliorer l'expérience de l'utilisateur, les systèmes et les logiciels.

En cliquant sur "J'accepte", vous autorisez l'utilisation de cookies, des identifiants d'appareils, des balises web ou d'autres technologies similaires. Vos paramètres peuvent être modifiés dans le navigateur de votre appareil.

Dans certains cas, des intérêts légitimes peuvent être invoqués plutôt qu'un consentement. Vous pouvez en savoir plus à ce sujet dans notre Politique de confidentialité et de cookies.